Time,TemperatureF,DewpointF,PressureIn,WindDirection,WindDirectionDegrees,WindSpeedMPH,WindSpeedGustMPH,Humidity,HourlyPrecipIn,Conditions,Clouds,dailyrainin,SoftwareType,DateUTC
2013-03-01 00:02:00,31.0,25.0,29.79,West,265,3.0,7.0,79,0.00,,,0.00,,2013-03-01 05:02:00,
2013-03-01 00:11:00,31.0,25.0,29.79,West,265,3.0,7.0,79,0.00,,,0.00,,2013-03-01 05:11:00,
2013-03-01 00:22:00,31.0,25.0,29.79,West,265,3.0,7.0,79,0.00,,,0.00,,2013-03-01 05:22:00,
2013-03-01 00:33:00,31.0,26.0,29.80,WNW,294,2.0,6.0,80,0.00,,,0.00,,2013-03-01 05:33:00,
2013-03-01 00:42:00,31.0,26.0,29.80,WNW,294,2.0,6.0,80,0.00,,,0.00,,2013-03-01 05:42:00,
2013-03-01 00:53:00,31.0,26.0,29.80,WNW,294,2.0,6.0,80,0.00,,,0.00,,2013-03-01 05:53:00,
2013-03-01 01:02:00,31.0,26.0,29.81,WNW,284,1.0,7.0,80,0.00,,,0.00,,2013-03-01 06:02:00,
2013-03-01 01:12:00,31.0,26.0,29.81,WNW,284,1.0,7.0,80,0.00,,,0.00,,2013-03-01 06:12:00,
2013-03-01 01:22:00,31.0,26.0,29.81,WNW,284,1.0,7.0,80,0.00,,,0.00,,2013-03-01 06:22:00,
2013-03-01 01:32:00,31.0,26.0,29.79,WNW,302,4.0,7.0,81,0.00,,,0.00,,2013-03-01 06:32:00,
2013-03-01 01:42:00,31.0,26.0,29.79,WNW,302,4.0,7.0,81,0.00,,,0.00,,2013-03-01 06:42:00,
2013-03-01 01:53:00,31.0,26.0,29.79,WNW,302,4.0,7.0,81,0.00,,,0.00,,2013-03-01 06:53:00,
2013-03-01 02:02:00,30.0,25.0,29.79,NW,313,1.0,6.0,82,0.00,,,0.00,,2013-03-01 07:02:00,
2013-03-01 02:11:00,30.0,25.0,29.79,NW,313,1.0,6.0,82,0.00,,,0.00,,2013-03-01 07:11:00,
2013-03-01 02:22:00,30.0,25.0,29.79,NW,313,1.0,6.0,82,0.00,,,0.00,,2013-03-01 07:22:00,
2013-03-01 02:32:00,30.0,25.0,29.79,NW,323,1.0,6.0,82,0.00,,,0.00,,2013-03-01 07:32:00,
2013-03-01 02:42:00,30.0,25.0,29.79,NW,323,1.0,6.0,82,0.00,,,0.00,,2013-03-01 07:42:00,
2013-03-01 02:52:00,30.0,25.0,29.79,NW,323,1.0,6.0,82,0.00,,,0.00,,2013-03-01 07:52:00,
2013-03-01 03:02:00,30.0,25.0,29.79,NW,326,1.0,5.0,83,0.00,,,0.00,,2013-03-01 08:02:00,
2013-03-01 03:12:00,30.0,25.0,29.79,NW,326,1.0,5.0,83,0.00,,,0.00,,2013-03-01 08:12:00,
2013-03-01 03:22:00,30.0,25.0,29.79,NW,326,1.0,5.0,83,0.00,,,0.00,,2013-03-01 08:22:00,
2013-03-01 03:32:00,30.0,25.0,29.77,WSW,240,2.0,5.0,82,0.00,,,0.00,,2013-03-01 08:32:00,
2013-03-01 03:42:00,30.0,25.0,29.77,WSW,240,2.0,5.0,82,0.00,,,0.00,,2013-03-01 08:42:00,
2013-03-01 03:53:00,30.0,25.0,29.77,WSW,240,2.0,5.0,82,0.00,,,0.00,,2013-03-01 08:53:00,
2013-03-01 04:02:00,30.0,25.0,29.77,WNW,284,0.0,3.0,83,0.00,,,0.00,,2013-03-01 09:02:00,
2013-03-01 04:12:00,30.0,25.0,29.77,WNW,284,0.0,3.0,83,0.00,,,0.00,,2013-03-01 09:12:00,
2013-03-01 04:22:00,30.0,25.0,29.77,WNW,284,0.0,3.0,83,0.00,,,0.00,,2013-03-01 09:22:00,
2013-03-01 04:32:00,30.0,26.0,29.78,WNW,289,1.0,3.0,85,0.00,,,0.00,,2013-03-01 09:32:00,
2013-03-01 04:42:00,30.0,26.0,29.78,WNW,289,1.0,3.0,85,0.00,,,0.00,,2013-03-01 09:42:00,
2013-03-01 04:53:00,30.0,26.0,29.78,WNW,289,1.0,3.0,85,0.00,,,0.00,,2013-03-01 09:53:00,
2013-03-01 05:02:00,30.0,26.0,29.78,WNW,289,0.0,2.0,84,0.00,,,0.00,,2013-03-01 10:02:00,
2013-03-01 05:11:00,30.0,26.0,29.78,WNW,289,0.0,2.0,84,0.00,,,0.00,,2013-03-01 10:11:00,
2013-03-01 05:22:00,30.0,26.0,29.78,WNW,289,0.0,2.0,84,0.00,,,0.00,,2013-03-01 10:22:00,
2013-03-01 05:32:00,30.0,25.0,29.79,WSW,253,0.0,2.0,83,0.00,,,0.00,,2013-03-01 10:32:00,
2013-03-01 05:42:00,30.0,25.0,29.79,WSW,253,0.0,2.0,83,0.00,,,0.00,,2013-03-01 10:42:00,
2013-03-01 05:53:00,30.0,25.0,29.79,WSW,253,0.0,2.0,83,0.00,,,0.00,,2013-03-01 10:53:00,
2013-03-01 06:02:00,30.0,25.0,29.80,West,281,0.0,2.0,82,0.00,,,0.00,,2013-03-01 11:02:00,
2013-03-01 06:11:00,30.0,25.0,29.80,West,281,0.0,2.0,82,0.00,,,0.00,,2013-03-01 11:11:00,
2013-03-01 06:23:00,30.0,25.0,29.80,West,281,0.0,2.0,82,0.00,,,0.00,,2013-03-01 11:23:00,
2013-03-01 06:32:00,30.0,25.0,29.80,West,281,1.0,2.0,82,0.00,,,0.00,,2013-03-01 11:32:00,
2013-03-01 06:42:00,30.0,25.0,29.80,West,281,1.0,2.0,82,0.00,,,0.00,,2013-03-01 11:42:00,
2013-03-01 06:53:00,30.0,25.0,29.80,West,281,1.0,2.0,82,0.00,,,0.00,,2013-03-01 11:53:00,
2013-03-01 07:02:00,30.0,25.0,29.80,SSW,213,0.0,1.0,83,0.00,,,0.00,,2013-03-01 12:02:00,
2013-03-01 07:11:00,30.0,25.0,29.80,SSW,213,0.0,1.0,83,0.00,,,0.00,,2013-03-01 12:11:00,
2013-03-01 07:22:00,30.0,25.0,29.80,SSW,213,0.0,1.0,83,0.00,,,0.00,,2013-03-01 12:22:00,
2013-03-01 07:32:00,30.0,26.0,29.80,SSW,213,0.0,0.0,84,0.00,,,0.00,,2013-03-01 12:32:00,
2013-03-01 07:42:00,30.0,26.0,29.80,SSW,213,0.0,0.0,84,0.00,,,0.00,,2013-03-01 12:42:00,
2013-03-01 07:52:00,30.0,26.0,29.80,SSW,213,0.0,0.0,84,0.00,,,0.00,,2013-03-01 12:52:00,
2013-03-01 08:01:00,30.0,26.0,29.80,SSW,213,0.0,1.0,85,0.00,,,0.00,,2013-03-01 13:01:00,
2013-03-01 08:11:00,30.0,26.0,29.80,SSW,213,0.0,1.0,85,0.00,,,0.00,,2013-03-01 13:11:00,
2013-03-01 08:22:00,30.0,26.0,29.80,SSW,213,0.0,1.0,85,0.00,,,0.00,,2013-03-01 13:22:00,
2013-03-01 08:32:00,31.0,26.0,29.82,SSW,213,0.0,1.0,82,0.00,,,0.00,,2013-03-01 13:32:00,
2013-03-01 08:42:00,31.0,26.0,29.82,SSW,213,0.0,1.0,82,0.00,,,0.00,,2013-03-01 13:42:00,
2013-03-01 08:52:00,31.0,26.0,29.82,SSW,213,0.0,1.0,82,0.00,,,0.00,,2013-03-01 13:52:00,
2013-03-01 09:02:00,33.0,27.0,29.81,NW,318,0.0,2.0,79,0.00,,,0.00,,2013-03-01 14:02:00,
2013-03-01 09:11:00,33.0,27.0,29.81,NW,318,0.0,2.0,79,0.00,,,0.00,,2013-03-01 14:11:00,
2013-03-01 09:22:00,33.0,27.0,29.81,NW,318,0.0,2.0,79,0.00,,,0.00,,2013-03-01 14:22:00,
2013-03-01 09:32:00,34.0,28.0,29.81,North,360,0.0,3.0,78,0.00,,,0.00,,2013-03-01 14:32:00,
2013-03-01 09:42:00,34.0,28.0,29.81,North,360,0.0,3.0,78,0.00,,,0.00,,2013-03-01 14:42:00,
2013-03-01 09:52:00,34.0,28.0,29.81,North,360,0.0,3.0,78,0.00,,,0.00,,2013-03-01 14:52:00,
2013-03-01 10:02:00,35.0,29.0,29.81,NW,319,0.0,2.0,78,0.00,,,0.00,,2013-03-01 15:02:00,
2013-03-01 10:11:00,35.0,29.0,29.81,NW,319,0.0,2.0,78,0.00,,,0.00,,2013-03-01 15:11:00,
2013-03-01 10:21:00,35.0,29.0,29.81,NW,319,0.0,2.0,78,0.00,,,0.00,,2013-03-01 15:21:00,
2013-03-01 10:32:00,35.0,29.0,29.81,NW,319,0.0,2.0,78,0.00,,,0.00,,2013-03-01 15:32:00,
2013-03-01 11:01:00,36.0,29.0,29.81,WSW,254,1.0,3.0,74,0.00,,,0.00,,2013-03-01 16:01:00,
2013-03-01 11:11:00,36.0,29.0,29.81,WSW,254,1.0,3.0,74,0.00,,,0.00,,2013-03-01 16:11:00,
2013-03-01 11:22:00,36.0,29.0,29.81,WSW,254,1.0,3.0,74,0.00,,,0.00,,2013-03-01 16:22:00,
2013-03-01 11:32:00,37.0,28.0,29.83,NNW,344,1.0,3.0,69,0.00,,,0.00,,2013-03-01 16:32:00,
2013-03-01 11:42:00,37.0,28.0,29.83,NNW,344,1.0,3.0,69,0.00,,,0.00,,2013-03-01 16:42:00,
2013-03-01 11:52:00,37.0,28.0,29.83,NNW,344,1.0,3.0,69,0.00,,,0.00,,2013-03-01 16:52:00,
2013-03-01 12:01:00,39.0,29.0,29.83,NNW,328,1.0,5.0,68,0.00,,,0.00,,2013-03-01 17:01:00,
2013-03-01 12:11:00,39.0,29.0,29.83,NNW,328,1.0,5.0,68,0.00,,,0.00,,2013-03-01 17:11:00,
2013-03-01 12:21:00,39.0,29.0,29.83,NNW,328,1.0,5.0,68,0.00,,,0.00,,2013-03-01 17:21:00,
2013-03-01 12:32:00,38.0,28.0,29.83,NW,325,1.0,4.0,67,0.00,,,0.00,,2013-03-01 17:32:00,
2013-03-01 12:42:00,38.0,28.0,29.83,NW,325,1.0,4.0,67,0.00,,,0.00,,2013-03-01 17:42:00,
2013-03-01 12:52:00,38.0,28.0,29.83,NW,325,1.0,4.0,67,0.00,,,0.00,,2013-03-01 17:52:00,
2013-03-01 13:01:00,38.0,28.0,29.82,ENE,75,0.0,3.0,66,0.00,,,0.00,,2013-03-01 18:01:00,
2013-03-01 13:12:00,38.0,28.0,29.82,ENE,75,0.0,3.0,66,0.00,,,0.00,,2013-03-01 18:12:00,
2013-03-01 13:22:00,38.0,28.0,29.82,ENE,75,0.0,3.0,66,0.00,,,0.00,,2013-03-01 18:22:00,
2013-03-01 13:32:00,38.0,29.0,29.81,West,272,0.0,5.0,69,0.00,,,0.00,,2013-03-01 18:32:00,
2013-03-01 13:42:00,38.0,29.0,29.81,West,272,0.0,5.0,69,0.00,,,0.00,,2013-03-01 18:42:00,
2013-03-01 13:52:00,38.0,29.0,29.81,West,272,0.0,5.0,69,0.00,,,0.00,,2013-03-01 18:52:00,
2013-03-01 14:01:00,38.0,29.0,29.80,North,354,1.0,5.0,70,0.00,,,0.00,,2013-03-01 19:01:00,
2013-03-01 14:11:00,38.0,29.0,29.80,North,354,1.0,5.0,70,0.00,,,0.00,,2013-03-01 19:11:00,
2013-03-01 14:21:00,38.0,29.0,29.80,North,354,1.0,5.0,70,0.00,,,0.00,,2013-03-01 19:21:00,
2013-03-01 14:32:00,39.0,30.0,29.79,NNW,337,0.0,5.0,71,0.00,,,0.00,,2013-03-01 19:32:00,
2013-03-01 14:42:00,39.0,30.0,29.79,NNW,337,0.0,5.0,71,0.00,,,0.00,,2013-03-01 19:42:00,
2013-03-01 14:52:00,39.0,30.0,29.79,NNW,337,0.0,5.0,71,0.00,,,0.00,,2013-03-01 19:52:00,
2013-03-01 15:01:00,40.0,30.0,29.78,NNW,340,2.0,3.0,68,0.00,,,0.00,,2013-03-01 20:01:00,
2013-03-01 15:11:00,40.0,30.0,29.78,NNW,340,2.0,3.0,68,0.00,,,0.00,,2013-03-01 20:11:00,
2013-03-01 15:21:00,40.0,30.0,29.78,NNW,340,2.0,3.0,68,0.00,,,0.00,,2013-03-01 20:21:00,
2013-03-01 15:32:00,40.0,31.0,29.78,SW,216,1.0,4.0,69,0.00,,,0.00,,2013-03-01 20:32:00,
2013-03-01 15:42:00,40.0,31.0,29.78,SW,216,1.0,4.0,69,0.00,,,0.00,,2013-03-01 20:42:00,
2013-03-01 15:52:00,40.0,31.0,29.78,SW,216,1.0,4.0,69,0.00,,,0.00,,2013-03-01 20:52:00,
2013-03-01 16:02:00,39.0,30.0,29.79,WNW,288,0.0,2.0,70,0.00,,,0.00,,2013-03-01 21:02:00,
2013-03-01 16:11:00,39.0,30.0,29.79,WNW,288,0.0,2.0,70,0.00,,,0.00,,2013-03-01 21:11:00,
2013-03-01 16:21:00,39.0,30.0,29.79,WNW,288,0.0,2.0,70,0.00,,,0.00,,2013-03-01 21:21:00,
2013-03-01 16:32:00,38.0,28.0,29.79,WNW,285,1.0,3.0,68,0.00,,,0.00,,2013-03-01 21:32:00,
2013-03-01 16:42:00,38.0,28.0,29.79,WNW,285,1.0,3.0,68,0.00,,,0.00,,2013-03-01 21:42:00,
2013-03-01 16:52:00,38.0,28.0,29.79,WNW,285,1.0,3.0,68,0.00,,,0.00,,2013-03-01 21:52:00,
2013-03-01 17:01:00,37.0,28.0,29.79,NW,316,1.0,2.0,71,0.00,,,0.00,,2013-03-01 22:01:00,
2013-03-01 17:11:00,37.0,28.0,29.79,NW,316,1.0,2.0,71,0.00,,,0.00,,2013-03-01 22:11:00,
2013-03-01 17:22:00,37.0,28.0,29.79,NW,316,1.0,2.0,71,0.00,,,0.00,,2013-03-01 22:22:00,
2013-03-01 17:32:00,37.0,28.0,29.78,NNW,335,0.0,2.0,70,0.00,,,0.00,,2013-03-01 22:32:00,
2013-03-01 17:42:00,37.0,28.0,29.78,NNW,335,0.0,2.0,70,0.00,,,0.00,,2013-03-01 22:42:00,
2013-03-01 17:52:00,37.0,28.0,29.78,NNW,335,0.0,2.0,70,0.00,,,0.00,,2013-03-01 22:52:00,
2013-03-01 18:01:00,36.0,28.0,29.78,NNW,335,0.0,2.0,73,0.00,,,0.00,,2013-03-01 23:01:00,
2013-03-01 18:11:00,36.0,28.0,29.78,NNW,335,0.0,2.0,73,0.00,,,0.00,,2013-03-01 23:11:00,
2013-03-01 18:21:00,36.0,28.0,29.78,NNW,335,0.0,2.0,73,0.00,,,0.00,,2013-03-01 23:21:00,
2013-03-01 18:32:00,36.0,29.0,29.78,West,267,1.0,3.0,74,0.00,,,0.00,,2013-03-01 23:32:00,
2013-03-01 18:41:00,36.0,29.0,29.78,West,267,1.0,3.0,74,0.00,,,0.00,,2013-03-01 23:41:00,
2013-03-01 18:52:00,36.0,29.0,29.78,West,267,1.0,3.0,74,0.00,,,0.00,,2013-03-01 23:52:00,
2013-03-01 19:02:00,35.0,27.0,29.80,NNW,346,0.0,0.0,73,0.00,,,0.00,,2013-03-02 00:02:00,
2013-03-01 19:12:00,35.0,27.0,29.80,NNW,346,0.0,0.0,73,0.00,,,0.00,,2013-03-02 00:12:00,
2013-03-01 19:22:00,35.0,27.0,29.80,NNW,346,0.0,0.0,73,0.00,,,0.00,,2013-03-02 00:22:00,
2013-03-01 19:32:00,35.0,28.0,29.80,NW,308,0.0,1.0,76,0.00,,,0.00,,2013-03-02 00:32:00,
2013-03-01 19:42:00,35.0,28.0,29.80,NW,308,0.0,1.0,76,0.00,,,0.00,,2013-03-02 00:42:00,
2013-03-01 19:52:00,35.0,28.0,29.80,NW,308,0.0,1.0,76,0.00,,,0.00,,2013-03-02 00:52:00,
2013-03-01 20:01:00,34.0,28.0,29.81,WNW,282,0.0,3.0,77,0.00,,,0.00,,2013-03-02 01:01:00,
2013-03-01 20:11:00,34.0,28.0,29.81,WNW,282,0.0,3.0,77,0.00,,,0.00,,2013-03-02 01:11:00,
2013-03-01 20:21:00,34.0,28.0,29.81,WNW,282,0.0,3.0,77,0.00,,,0.00,,2013-03-02 01:21:00,
2013-03-01 20:32:00,34.0,28.0,29.81,WNW,282,0.0,3.0,77,0.00,,,0.00,,2013-03-02 01:32:00,
2013-03-01 20:41:00,34.0,28.0,29.81,WNW,282,0.0,3.0,77,0.00,,,0.00,,2013-03-02 01:41:00,
2013-03-01 21:01:00,34.0,27.0,29.80,WNW,295,1.0,2.0,74,0.00,,,0.00,,2013-03-02 02:01:00,
2013-03-01 21:11:00,34.0,27.0,29.80,WNW,295,1.0,2.0,74,0.00,,,0.00,,2013-03-02 02:11:00,
2013-03-01 21:22:00,34.0,27.0,29.80,WNW,295,1.0,2.0,74,0.00,,,0.00,,2013-03-02 02:22:00,
2013-03-01 21:32:00,33.0,27.0,29.82,NNW,335,0.0,2.0,77,0.00,,,0.00,,2013-03-02 02:32:00,
2013-03-01 21:42:00,33.0,27.0,29.82,NNW,335,0.0,2.0,77,0.00,,,0.00,,2013-03-02 02:42:00,
2013-03-01 21:52:00,33.0,27.0,29.82,NNW,335,0.0,2.0,77,0.00,,,0.00,,2013-03-02 02:52:00,
2013-03-01 22:02:00,33.0,27.0,29.83,NNW,335,0.0,2.0,77,0.00,,,0.00,,2013-03-02 03:02:00,
2013-03-01 22:11:00,33.0,27.0,29.83,NNW,335,0.0,2.0,77,0.00,,,0.00,,2013-03-02 03:11:00,
2013-03-01 22:22:00,33.0,27.0,29.83,NNW,335,0.0,2.0,77,0.00,,,0.00,,2013-03-02 03:22:00,
2013-03-01 22:32:00,33.0,27.0,29.83,NNW,335,0.0,2.0,78,0.00,,,0.00,,2013-03-02 03:32:00,
2013-03-01 22:42:00,33.0,27.0,29.83,NNW,335,0.0,2.0,78,0.00,,,0.00,,2013-03-02 03:42:00,
2013-03-01 22:52:00,33.0,27.0,29.83,NNW,335,0.0,2.0,78,0.00,,,0.00,,2013-03-02 03:52:00,
2013-03-01 23:02:00,33.0,27.0,29.83,NNW,329,0.0,3.0,78,0.00,,,0.00,,2013-03-02 04:02:00,
2013-03-01 23:11:00,33.0,27.0,29.83,NNW,329,0.0,3.0,78,0.00,,,0.00,,2013-03-02 04:11:00,
2013-03-01 23:22:00,33.0,27.0,29.83,NNW,329,0.0,3.0,78,0.00,,,0.00,,2013-03-02 04:22:00,
2013-03-01 23:32:00,33.0,27.0,29.80,NW,308,1.0,2.0,78,0.00,,,0.00,,2013-03-02 04:32:00,
2013-03-01 23:42:00,33.0,27.0,29.80,NW,308,1.0,2.0,78,0.00,,,0.00,,2013-03-02 04:42:00,
2013-03-01 23:52:00,33.0,27.0,29.80,NW,308,1.0,2.0,78,0.00,,,0.00,,2013-03-02 04:52:00,